Weather History for HTSO - December, 2013

Change the Weather History Date:

Monday, December 2, 2013

  Actual Average Record
Temperature  
Mean Temperature 72 °F -  
Max Temperature 84 °F - - ()
Min Temperature 61 °F - - ()
Cooling Degree Days 8    
Growing Degree Days 22 (Base 50)    
Moisture  
Dew Point 62 °F    
Average Humidity 67    
Maximum Humidity 100    
Minimum Humidity 29    
Precipitation  
Precipitation 0.00 in 0.28 in - ()
Sea Level Pressure  
Sea Level Pressure 30.12 in    
Wind  
Wind Speed 5 mph ()    
Max Wind Speed 17 mph    
Max Gust Speed -    
Visibility 8.9 miles    
Events      
T = Trace of Precipitation, MM = Missing Value Source: Averaged Metar Reports

Daily Weather History Graph

Daily Weather History Graph

Search for Another Location

Airport or City:

Trip Planner

Search our weather history database for the weather conditions in past years. The results will help you decide how hot, cold, wet, or windy it might be!

Date:

Astronomy

Dec. 02, 2013 Rise Set
Actual Time 6:05 AM EAT 6:48 PM EAT
Civil Twilight 5:43 AM EAT 7:11 PM EAT
Nautical Twilight 5:16 AM EAT 7:38 PM EAT
Astronomical Twilight 4:48 AM EAT 8:05 PM EAT
Moon 5:22 AM EAT 6:20 PM EAT
Length of Visible Light 13h 28m
Length of Day
12h 42m
Waning Crescent, 1% of the Moon is Illuminated
Dec 2
Waning Crescent
Dec 3
New
Dec 9
First Quarter
Dec 17
Full
Dec 25
Last Quarter

Hourly Weather History & Observations

Time (EAT) Temp. Heat Index Dew Point Humidity Pressure Visibility Wind Dir Wind Speed Gust Speed Precip Events Conditions
12:00 AM 69 °F - 65 °F 85%  in 19 mi Calm Calm - -   Partly Cloudy
1:00 AM 68.0 °F - 66.2 °F 94% 30.15 in 6.2 mi Calm Calm - N/A   Scattered Clouds
2:00 AM 68.0 °F - 66.2 °F 94% 30.15 in 6.2 mi Calm Calm - N/A   Scattered Clouds
3:00 AM 67 °F - 65 °F 91%  in 19 mi East 11.5 mph - -   Scattered Clouds
3:00 AM 68.0 °F - 64.4 °F 88% 30.15 in 6.2 mi East 11.5 mph - N/A   Partly Cloudy
4:00 AM 68.0 °F - 64.4 °F 88% 30.15 in 6.2 mi East 9.2 mph - N/A   Partly Cloudy
5:00 AM 68.0 °F - 64.4 °F 88% 30.15 in 6.2 mi East 6.9 mph - N/A   Partly Cloudy
6:00 AM 66 °F - 65 °F 95%  in 19 mi East 4.6 mph - -   Partly Cloudy
6:00 AM 66.2 °F - 64.4 °F 94% 30.15 in 6.2 mi East 4.6 mph - N/A   Partly Cloudy
7:00 AM 66.2 °F - 66.2 °F 100% 30.15 in 6.2 mi Calm Calm - N/A   Partly Cloudy
8:00 AM 69.8 °F - 66.2 °F 88% 30.18 in 6.2 mi Calm Calm - N/A   Partly Cloudy
9:00 AM 72 °F - 64 °F 71%  in 19 mi East 17.3 mph - -   Partly Cloudy
9:00 AM 73.4 °F - 64.4 °F 73% 30.18 in 6.2 mi East 17.3 mph - N/A   Partly Cloudy
10:00 AM 75.2 °F - 62.6 °F 65% 30.18 in 6.2 mi ENE 13.8 mph - N/A   Scattered Clouds
11:00 AM 78.8 °F - 60.8 °F 54% 30.18 in 6.2 mi SSE 13.8 mph - N/A   Scattered Clouds
12:00 PM 83 °F - 56 °F 29%  in 19 mi SE 5.8 mph - -   Partly Cloudy
12:00 PM 80.6 °F 81.8 °F 62.6 °F 54% 30.15 in 6.2 mi SE 11.5 mph - N/A   Scattered Clouds
1:00 PM 80.6 °F 81.5 °F 60.8 °F 51% 30.15 in 6.2 mi ESE 16.1 mph - N/A   Scattered Clouds
2:00 PM 82.4 °F 82.0 °F 57.2 °F 42% 30.09 in 6.2 mi East 11.5 mph - N/A   Scattered Clouds
3:00 PM 84 °F - 56 °F 29%  in 19 mi SE 6.9 mph - -   Partly Cloudy
3:00 PM 84.2 °F 83.5 °F 57.2 °F 40% 30.09 in 6.2 mi SE 6.9 mph - N/A   Scattered Clouds
4:00 PM 84.2 °F 83.0 °F 55.4 °F 37% 30.06 in 6.2 mi Calm Calm - N/A   Scattered Clouds
5:00 PM 84.2 °F 83.0 °F 55.4 °F 37% 30.04 in 6.2 mi SSE 11.5 mph - N/A   Scattered Clouds
6:00 PM 82.4 °F 81.7 °F 55.4 °F 39% 30.04 in 6.2 mi SE 5.8 mph - N/A   Scattered Clouds
7:00 PM 77.0 °F - 60.8 °F 57% 30.06 in 6.2 mi East 5.8 mph - N/A   Partly Cloudy
8:00 PM 77.0 °F - 60.8 °F 57% 30.06 in 6.2 mi Calm Calm - N/A   Partly Cloudy
10:00 PM 71.6 °F - 60.8 °F 69% 30.09 in 6.2 mi Calm Calm - N/A   Partly Cloudy
11:00 PM 78.8 °F - 60.8 °F 54% 30.09 in 6.2 mi Calm Calm - N/A   Partly Cloudy